Weather History for Casper, WY

Change the Weather History Date:

Monday, December 2, 2013

  Actual Average Record
Temperature  
Mean Temperature 42 °F 26 °F  
Max Temperature 52 °F 36 °F 59 °F (1939)
Min Temperature 31 °F 15 °F -15 °F (1985)
Degree Days  
Heating Degree Days 23 39  
Month to date heating degree days 49 78  
Since 1 July heating degree days 1893 1932  
Cooling Degree Days 0 0  
Month to date cooling degree days 0 0  
Year to date cooling degree days 618 422  
Moisture  
Dew Point 27 °F    
Average Humidity 51    
Maximum Humidity 64    
Minimum Humidity 38    
Precipitation  
Precipitation 0.00 in 0.01 in 0.42 in (1955)
Month to date precipitation 0.00 0.03  
Year to date precipitation 13.94 12.06  
Snow  
Snow 0.00 in 0.40 in - ()
Month to date snowfall 0.0 0.7  
Since 1 July snowfall 24.8 20.2  
Snow Depth 0.00 in    
Sea Level Pressure  
Sea Level Pressure 29.56 in    
Wind  
Wind Speed 23 mph (SW)    
Max Wind Speed 37 mph    
Max Gust Speed 45 mph    
Visibility 10 miles    
Events      
T = Trace of Precipitation, MM = Missing Value Source: NWS Daily Summary

Daily Weather History Graph

Daily Weather History Graph

Search for Another Location

Airport:

Trip Planner

Search our weather history database for the weather conditions in past years. The results will help you decide how hot, cold, wet, or windy it might be!

Date:

Astronomy

Dec. 02, 2013 Rise Set
Actual Time 7:18 AM MST 4:32 PM MST
Civil Twilight 6:46 AM MST 5:04 PM MST
Nautical Twilight 6:11 AM MST 5:39 PM MST
Astronomical Twilight 5:37 AM MST 6:13 PM MST
Moon 6:45 AM MST (12/2) 4:38 PM MST (12/2)
Length of Visible Light 10h 17m
Length of Day
9h 13m
Waning Crescent, 0% of the Moon is Illuminated
Dec 2
Waning Crescent
Dec 2
New
Dec 9
First Quarter
Dec 17
Full
Dec 25
Last Quarter

Hourly Weather History & Observations

Time (MST) Temp. Windchill Dew Point Humidity Pressure Visibility Wind Dir Wind Speed Gust Speed Precip Events Conditions
12:53 AM 41.0 °F 30.7 °F 28.0 °F 60% 29.73 in 10.0 mi SSW 25.3 mph 41.4 mph N/A   Clear
1:53 AM 41.0 °F 31.1 °F 28.9 °F 62% 29.73 in 10.0 mi SW 23.0 mph - N/A   Clear
2:53 AM 39.9 °F 30.2 °F 28.9 °F 65% 29.70 in 10.0 mi SW 20.7 mph 27.6 mph N/A   Clear
3:53 AM 41.0 °F 30.5 °F 28.0 °F 60% 29.66 in 10.0 mi SSW 26.5 mph 34.5 mph N/A   Clear
4:53 AM 41.0 °F 31.4 °F 28.0 °F 60% 29.65 in 10.0 mi SSW 21.9 mph 29.9 mph N/A   Clear
5:53 AM 42.1 °F 32.8 °F 27.0 °F 55% 29.63 in 10.0 mi SSW 21.9 mph 38.0 mph N/A   Clear
6:53 AM 42.1 °F 32.3 °F 27.0 °F 55% 29.63 in 10.0 mi SSW 24.2 mph 31.1 mph N/A   Clear
7:53 AM 42.1 °F 33.1 °F 27.0 °F 55% 29.62 in 10.0 mi SSW 20.7 mph - N/A   Clear
8:53 AM 43.0 °F 33.5 °F 27.0 °F 53% 29.61 in 10.0 mi SSW 24.2 mph 32.2 mph N/A   Clear
9:53 AM 45.0 °F 37.6 °F 27.0 °F 49% 29.62 in 10.0 mi SSW 17.3 mph 27.6 mph N/A   Clear
10:53 AM 48.9 °F - 27.0 °F 43% 29.58 in 10.0 mi SW 21.9 mph 33.4 mph N/A   Clear
11:53 AM 51.1 °F - 27.0 °F 39% 29.53 in 10.0 mi WSW 29.9 mph 39.1 mph N/A   Clear
12:53 PM 52.0 °F - 26.1 °F 37% 29.50 in 10.0 mi SW 27.6 mph 33.4 mph N/A   Clear
1:53 PM 48.9 °F - 25.0 °F 39% 29.48 in 10.0 mi WSW 29.9 mph 41.4 mph N/A   Clear
2:53 PM 48.0 °F - 26.1 °F 42% 29.48 in 10.0 mi WSW 27.6 mph 38.0 mph N/A   Clear
3:53 PM 46.9 °F - 26.1 °F 44% 29.49 in 10.0 mi WSW 25.3 mph 39.1 mph N/A   Clear
4:53 PM 45.0 °F 36.2 °F 26.1 °F 48% 29.49 in 10.0 mi SW 24.2 mph 36.8 mph N/A   Clear
5:53 PM 43.0 °F 32.7 °F 26.1 °F 51% 29.47 in 10.0 mi SW 28.8 mph 40.3 mph N/A   Clear
6:53 PM 42.1 °F 32.3 °F 26.1 °F 53% 29.47 in 10.0 mi SW 24.2 mph 32.2 mph N/A   Clear
7:53 PM 41.0 °F 32.5 °F 25.0 °F 53% 29.47 in 10.0 mi SW 17.3 mph - N/A   Clear
8:53 PM 39.9 °F 29.7 °F 25.0 °F 55% 29.46 in 10.0 mi SW 23.0 mph 31.1 mph N/A   Clear
9:53 PM 39.0 °F 29.0 °F 26.1 °F 60% 29.45 in 10.0 mi SW 20.7 mph - N/A   Clear
10:53 PM 37.9 °F 29.6 °F 27.0 °F 65% 29.45 in 10.0 mi SW 13.8 mph - N/A   Clear
11:53 PM 32.0 °F 22.1 °F 25.0 °F 75% 29.48 in 10.0 mi NNW 13.8 mph - N/A   Mostly Cloudy